Selawik, AK

4:47 AM AKDT on September 22, 2017 (GMT -0800)
Selawik

Weather History for PASK - February, 2014

Change the Weather History Date:

Monday, February 24, 2014

  Actual Average Record
Temperature  
Mean Temperature 6 °F -  
Max Temperature 10 °F 6 °F 33 °F (2011)
Min Temperature 1 °F -2 °F -29 °F (2007)
Degree Days  
Heating Degree Days 60    
Moisture  
Dew Point -1 °F    
Average Humidity 78    
Maximum Humidity 92    
Minimum Humidity 61    
Precipitation  
Precipitation 0.00 in - - ()
Sea Level Pressure  
Sea Level Pressure 30.06 in    
Wind  
Wind Speed 17 mph (ENE)    
Max Wind Speed 22 mph    
Max Gust Speed 24 mph    
Visibility 10 miles    
Events      
Averages and records for this station are not official NWS values.
T = Trace of Precipitation, MM = Missing Value Source: NWS Daily Summary

Daily Weather History Graph

Daily Weather History Graph

Search for Another Location

Airport or City:

Trip Planner

Search our weather history database for the weather conditions in past years. The results will help you decide how hot, cold, wet, or windy it might be!

Date:

Astronomy

Feb. 24, 2014 Rise Set
Actual Time 9:12 AM AKST 6:34 PM AKST
Civil Twilight 8:18 AM AKST 7:29 PM AKST
Nautical Twilight 7:18 AM AKST 8:29 PM AKST
Astronomical Twilight 6:16 AM AKST 9:31 PM AKST
Moon 7:00 AM AKST (2/24) 12:11 PM AKST (2/24)
Length of Visible Light 11h 10m
Length of Day
9h 21m
Waning Crescent, 26% of the Moon is Illuminated
Feb 24
Waning Crescent
Feb 28
New
Mar 8
First Quarter
Mar 16
Full
Mar 23
Last Quarter

Hourly Weather History & Observations

Time (AKST) Temp. Windchill Dew Point Humidity Pressure Visibility Wind Dir Wind Speed Gust Speed Precip Events Conditions
12:16 AM 8.6 °F -8.9 °F 1.4 °F 73% 30.07 in 10.0 mi ENE 16.1 mph - N/A   Clear
12:36 AM 8.6 °F -10.0 °F 3.2 °F 79% 30.07 in 10.0 mi ENE 18.4 mph - N/A   Clear
12:56 AM 8.6 °F -11.4 °F 1.4 °F 73% 30.07 in 10.0 mi ENE 21.9 mph - N/A   Clear
1:16 AM 8.6 °F -10.0 °F 3.2 °F 79% 30.07 in 10.0 mi East 18.4 mph - N/A   Clear
1:36 AM 6.8 °F -12.9 °F 1.4 °F 79% 30.07 in 10.0 mi ENE 19.6 mph - N/A   Clear
1:56 AM 6.8 °F -12.9 °F 1.4 °F 79% 30.07 in 10.0 mi ENE 19.6 mph 24.2 mph N/A   Clear
2:16 AM 6.8 °F -12.4 °F 1.4 °F 79% 30.07 in 10.0 mi ENE 18.4 mph - N/A   Clear
2:36 AM 6.8 °F -11.8 °F 1.4 °F 79% 30.07 in 10.0 mi ENE 17.3 mph - N/A   Clear
2:56 AM 6.8 °F -13.4 °F 1.4 °F 79% 30.07 in 10.0 mi ENE 20.7 mph - N/A   Clear
3:16 AM 5.0 °F -13.6 °F -0.4 °F 78% 30.07 in 10.0 mi ENE 16.1 mph - N/A   Clear
3:36 AM 5.0 °F -14.2 °F 1.4 °F 85% 30.07 in 10.0 mi East 17.3 mph - N/A   Clear
3:56 AM 5.0 °F -14.2 °F -0.4 °F 78% 30.07 in 10.0 mi ENE 17.3 mph - N/A   Clear
4:16 AM 6.8 °F -11.8 °F -0.4 °F 72% 30.07 in 10.0 mi ENE 17.3 mph - N/A   Clear
4:36 AM 6.8 °F -11.3 °F 1.4 °F 79% 30.08 in 10.0 mi ENE 16.1 mph - N/A   Clear
4:56 AM 5.0 °F -14.2 °F -0.4 °F 78% 30.08 in 10.0 mi ENE 17.3 mph - N/A   Clear
5:16 AM 3.2 °F -17.1 °F -0.4 °F 85% 30.08 in 10.0 mi ENE 18.4 mph - N/A   Clear
5:36 AM 3.2 °F -17.6 °F -2.2 °F 78% 30.07 in 10.0 mi ENE 19.6 mph - N/A   Clear
5:56 AM 3.2 °F -17.6 °F -0.4 °F 85% 30.08 in 10.0 mi ENE 19.6 mph - N/A   Clear
6:16 AM 3.2 °F -16.5 °F -2.2 °F 78% 30.08 in 10.0 mi ENE 17.3 mph - N/A   Clear
6:36 AM 3.2 °F -17.6 °F 1.4 °F 92% 30.08 in 10.0 mi ENE 19.6 mph - N/A   Clear
6:56 AM 3.2 °F -16.5 °F -2.2 °F 78% 30.08 in 10.0 mi ENE 17.3 mph - N/A   Clear
7:16 AM 3.2 °F -15.9 °F -2.2 °F 78% 30.08 in 10.0 mi ENE 16.1 mph - N/A   Clear
7:36 AM 3.2 °F -15.9 °F -0.4 °F 85% 30.08 in 10.0 mi ENE 16.1 mph - N/A   Clear
7:56 AM 3.2 °F -15.9 °F -2.2 °F 78% 30.07 in 10.0 mi ENE 16.1 mph - N/A   Clear
8:16 AM 1.4 °F -17.6 °F -2.2 °F 85% 30.08 in 10.0 mi ENE 15.0 mph - N/A   Clear
8:36 AM 3.2 °F -16.5 °F -2.2 °F 78% 30.08 in 10.0 mi ENE 17.3 mph - N/A   Clear
8:56 AM 3.2 °F -14.6 °F -2.2 °F 78% 30.08 in 10.0 mi ENE 13.8 mph - N/A   Clear
9:16 AM 3.2 °F -13.9 °F -0.4 °F 85% 30.09 in 10.0 mi ENE 12.7 mph - N/A   Clear
9:36 AM 3.2 °F -14.6 °F -4.0 °F 72% 30.09 in 10.0 mi ENE 13.8 mph - N/A   Clear
9:56 AM 3.2 °F -15.3 °F -2.2 °F 78% 30.09 in 10.0 mi ENE 15.0 mph - N/A   Clear
10:16 AM 3.2 °F -14.6 °F -2.2 °F 78% 30.09 in 10.0 mi ENE 13.8 mph - N/A   Clear
10:36 AM 3.2 °F -13.1 °F -2.2 °F 78% 30.08 in 10.0 mi NE 11.5 mph - N/A   Clear
10:56 AM 3.2 °F -17.1 °F -2.2 °F 78% 30.08 in 10.0 mi ENE 18.4 mph - N/A   Clear
11:16 AM 3.2 °F -13.1 °F 1.4 °F 92% 30.09 in 10.0 mi East 11.5 mph - N/A   Clear
11:36 AM 3.2 °F -13.9 °F -2.2 °F 78% 30.09 in 10.0 mi East 12.7 mph - N/A   Clear
11:56 AM 3.2 °F -15.3 °F -4.0 °F 72% 30.09 in 10.0 mi ENE 15.0 mph - N/A   Clear
12:16 PM 5.0 °F -14.7 °F -0.4 °F 78% 30.09 in 10.0 mi ENE 18.4 mph - N/A   Clear
12:36 PM 6.8 °F -11.3 °F -0.4 °F 72% 30.09 in 10.0 mi ENE 16.1 mph - N/A   Clear
12:56 PM 6.8 °F -11.8 °F 1.4 °F 79% 30.08 in 10.0 mi ENE 17.3 mph - N/A   Clear
1:16 PM 8.6 °F -10.0 °F 1.4 °F 73% 30.08 in 10.0 mi East 18.4 mph - N/A   Clear
1:36 PM 8.6 °F -8.3 °F 1.4 °F 73% 30.08 in 10.0 mi ENE 15.0 mph - N/A   Clear
1:56 PM 10.4 °F -6.6 °F 1.4 °F 67% 30.08 in 10.0 mi ENE 16.1 mph - N/A   Clear
2:16 PM 10.4 °F -6.0 °F 1.4 °F 67% 30.08 in 10.0 mi ENE 15.0 mph - N/A   Clear
2:36 PM 8.6 °F -6.3 °F 1.4 °F 73% 30.08 in 10.0 mi ENE 11.5 mph - N/A   Clear
2:56 PM 8.6 °F -8.3 °F 5.0 °F 85% 30.07 in 10.0 mi East 15.0 mph - N/A   Clear
3:16 PM 8.6 °F -8.3 °F 1.4 °F 73% 30.06 in 10.0 mi ENE 15.0 mph - N/A   Clear
3:36 PM 8.6 °F -8.3 °F 3.2 °F 79% 30.05 in 10.0 mi ENE 15.0 mph - N/A   Clear
3:56 PM 8.6 °F -8.9 °F 1.4 °F 73% 30.05 in 10.0 mi ENE 16.1 mph - N/A   Clear
4:16 PM 8.6 °F -8.9 °F 3.2 °F 79% 30.04 in 10.0 mi East 16.1 mph - N/A   Clear
4:36 PM 8.6 °F -8.3 °F 1.4 °F 73% 30.04 in 10.0 mi ENE 15.0 mph - N/A   Clear
4:56 PM 8.6 °F -7.0 °F 1.4 °F 73% 30.03 in 10.0 mi East 12.7 mph - N/A   Clear
5:16 PM 6.8 °F -11.3 °F -0.4 °F 72% 30.02 in 10.0 mi East 16.1 mph - N/A   Clear
5:36 PM 6.8 °F -7.8 °F 1.4 °F 79% 30.03 in 10.0 mi ENE 10.4 mph - N/A   Clear
5:56 PM 6.8 °F -9.3 °F -0.4 °F 72% 30.03 in 10.0 mi East 12.7 mph - N/A   Clear
6:16 PM 6.8 °F -9.3 °F -0.4 °F 72% 30.02 in 10.0 mi ENE 12.7 mph - N/A   Clear
6:36 PM 5.0 °F -13.6 °F -0.4 °F 78% 30.02 in 10.0 mi ENE 16.1 mph - N/A   Clear
6:56 PM 3.2 °F -13.9 °F 1.4 °F 92% 30.02 in 10.0 mi ENE 12.7 mph - N/A   Clear
7:16 PM 3.2 °F -14.6 °F -2.2 °F 78% 30.02 in 10.0 mi ENE 13.8 mph - N/A   Clear
7:36 PM 5.0 °F -13.6 °F -0.4 °F 78% 30.01 in 10.0 mi ENE 16.1 mph - N/A   Clear
7:56 PM 5.0 °F -14.7 °F -0.4 °F 78% 30.02 in 10.0 mi ENE 18.4 mph - N/A   Clear
8:16 PM 5.0 °F -14.2 °F -2.2 °F 72% 30.02 in 10.0 mi East 17.3 mph - N/A   Clear
8:36 PM 5.0 °F -12.3 °F -2.2 °F 72% 30.02 in 10.0 mi ENE 13.8 mph - N/A   Clear
8:56 PM 3.2 °F -15.9 °F -4.0 °F 72% 30.02 in 10.0 mi East 16.1 mph - N/A   Clear
9:16 PM 3.2 °F -14.6 °F -0.4 °F 85% 30.02 in 10.0 mi ENE 13.8 mph - N/A   Clear
9:36 PM 1.4 °F -16.9 °F -9.4 °F 61% 30.01 in 10.0 mi ENE 13.8 mph - N/A   Clear
9:56 PM 1.4 °F -17.6 °F -2.2 °F 85% 30.01 in 10.0 mi NE 15.0 mph - N/A   Clear
10:16 PM 1.4 °F -17.6 °F -2.2 °F 85% 30.02 in 10.0 mi NE 15.0 mph - N/A   Clear
10:36 PM 1.4 °F -18.2 °F -4.0 °F 78% 30.01 in 10.0 mi ENE 16.1 mph - N/A   Clear
10:56 PM 1.4 °F -18.8 °F -4.0 °F 78% 30.01 in 10.0 mi ENE 17.3 mph - N/A   Clear
11:16 PM 1.4 °F -17.6 °F -2.2 °F 85% 30.01 in 10.0 mi ENE 15.0 mph - N/A   Clear
11:36 PM 1.4 °F -16.1 °F -5.8 °F 72% 30.02 in 10.0 mi ENE 12.7 mph - N/A   Clear
11:56 PM 1.4 °F -17.6 °F -5.8 °F 72% 30.01 in 10.0 mi ENE 15.0 mph - N/A   Clear